| time (UTC) | temp F | wind direction | speed MPH | gust MPH | rain 1hr in | rain 24hr in | rain mn in | humidity % | barometer mb |
| 20260504191225 | 71 | 193 | 0.0 | 3.0 | 0.00 | 0.00 | 0.00 | 60 | 1006.2 |
| 20260504190818 | 70 | 223 | 3.0 | 8.0 | 0.00 | 0.00 | 0.00 | 61 | 1006.1 |
| 20260504190224 | 68 | 337 | 1.0 | 6.0 | 0.00 | 0.00 | 0.00 | 63 | 1005.9 |
| 20260504185318 | 67 | 123 | 7.0 | 10.0 | 0.00 | 0.00 | 0.00 | 62 | 1005.7 |
| 20260504185223 | 67 | 143 | 5.0 | 12.0 | 0.00 | 0.00 | 0.00 | 62 | 1005.9 |
| 20260504184223 | 68 | 106 | 2.0 | 8.0 | 0.00 | 0.00 | 0.00 | 60 | 1007.4 |
| 20260504183819 | 68 | 150 | 2.0 | 1.0 | 0.00 | 0.00 | 0.00 | 59 | 1007.6 |
| 20260504183225 | 69 | 233 | 0.0 | 7.0 | 0.00 | 0.00 | 0.00 | 57 | 1007.3 |
| 20260504182318 | 70 | 210 | 0.0 | 3.0 | 0.00 | 0.00 | 0.00 | 57 | 1007.7 |
| 20260504182224 | 70 | 216 | 1.0 | 2.0 | 0.00 | 0.00 | 0.00 | 57 | 1007.7 |
| 20260504181224 | 70 | 136 | 2.0 | 6.0 | 0.00 | 0.00 | 0.00 | 57 | 1007.5 |
| 20260504180818 | 70 | 167 | 1.0 | 5.0 | 0.00 | 0.00 | 0.00 | 57 | 1007.4 |
| 20260504180224 | 70 | 256 | 2.0 | 7.0 | 0.00 | 0.00 | 0.00 | 57 | 1007.3 |
| 20260504175317 | 69 | 185 | 0.0 | 0.0 | 0.00 | 0.00 | 0.00 | 58 | 1007.6 |
| 20260504175223 | 69 | 184 | 1.0 | 3.0 | 0.00 | 0.00 | 0.00 | 58 | 1007.7 |
| 20260504174223 | 69 | 141 | 0.0 | 0.0 | 0.00 | 0.00 | 0.00 | 58 | 1007.6 |
| 20260504173819 | 69 | 141 | 0.0 | 0.0 | 0.00 | 0.00 | 0.00 | 58 | 1007.7 |
| 20260504173225 | 68 | 270 | 0.0 | 2.0 | 0.00 | 0.00 | 0.00 | 60 | 1008.0 |
| 20260504172318 | 68 | 239 | 0.0 | 3.0 | 0.00 | 0.00 | 0.00 | 60 | 1008.0 |
| 20260504172224 | 67 | 239 | 0.0 | 0.0 | 0.00 | 0.00 | 0.00 | 61 | 1008.0 |
| 20260504171224 | 67 | 239 | 0.0 | 0.0 | 0.00 | 0.00 | 0.00 | 61 | 1008.1 |
| 20260504170818 | 66 | 239 | 2.0 | 5.0 | 0.00 | 0.00 | 0.00 | 61 | 1008.1 |
| 20260504170223 | 66 | 126 | 2.0 | 5.0 | 0.00 | 0.00 | 0.00 | 60 | 1008.0 |
| 20260504160224 | 66 | 78 | 0.0 | 6.0 | 0.00 | 0.00 | 0.00 | 56 | 1008.5 |
| 20260504150818 | 66 | 183 | 0.0 | 0.0 | 0.00 | 0.00 | 0.00 | 57 | 1009.5 |
| 20260504150224 | 66 | 184 | 2.0 | 6.0 | 0.00 | 0.00 | 0.00 | 55 | 1009.5 |
| 20260504141224 | 70 | 211 | 1.0 | 3.0 | 0.00 | 0.00 | 0.00 | 51 | 1009.6 |
| 20260504140817 | 71 | 196 | 1.0 | 1.0 | 0.00 | 0.00 | 0.00 | 50 | 1009.7 |
| 20260504140225 | 72 | 214 | 1.0 | 1.0 | 0.00 | 0.00 | 0.00 | 50 | 1009.6 |
| 20260504130817 | 68 | 237 | 0.0 | 1.0 | 0.00 | 0.00 | 0.00 | 58 | 1010.1 |
| 20260504130223 | 67 | 204 | 1.0 | 6.0 | 0.00 | 0.00 | 0.00 | 59 | 1010.3 |
| 20260504120223 | 61 | 270 | 2.0 | 3.0 | 0.00 | 0.00 | 0.00 | 66 | 1010.4 |
| 20260504110224 | 60 | 279 | 0.0 | 0.0 | 0.00 | 0.00 | 0.00 | 68 | 1010.3 |
| 20260504100224 | 62 | 258 | 0.0 | 0.0 | 0.00 | 0.00 | 0.00 | 61 | 1010.6 |
| 20260504081224 | 60 | 0 | 0.0 | 0.0 | 0.00 | 0.00 | 0.00 | 71 | 1010.6 |
| 20260504080825 | 60 | 0 | 0.0 | 0.0 | 0.00 | 0.00 | 0.00 | 71 | 1010.7 |
| 20260504080818 | 60 | 0 | 0.0 | 0.0 | 0.00 | 0.00 | 0.00 | 71 | 1010.7 |
| 20260504080223 | 61 | 0 | 0.0 | 0.0 | 0.00 | 0.00 | 0.00 | 70 | 1010.7 |
| 20260504070223 | 62 | 0 | 0.0 | 0.0 | 0.00 | 0.00 | 0.00 | 66 | 1010.7 |
| 20260504060223 | 66 | 0 | 0.0 | 0.0 | 0.00 | 0.00 | 0.00 | 57 | 1011.4 |
| 20260504050223 | 64 | 296 | 0.0 | 0.0 | 0.00 | 0.00 | 0.00 | 57 | 1010.4 |
| 20260504045318 | 64 | 296 | 0.0 | 0.0 | 0.00 | 0.00 | 0.00 | 57 | 1010.4 |
| 20260504045224 | 64 | 296 | 0.0 | 0.0 | 0.00 | 0.00 | 0.00 | 57 | 1010.4 |
| 20260504044224 | 65 | 296 | 0.0 | 0.0 | 0.00 | 0.00 | 0.00 | 55 | 1010.4 |
| 20260504043817 | 65 | 296 | 0.0 | 0.0 | 0.00 | 0.00 | 0.00 | 55 | 1010.7 |
| 20260504043223 | 65 | 296 | 0.0 | 0.0 | 0.00 | 0.00 | 0.00 | 56 | 1010.5 |
| 20260504042318 | 67 | 296 | 0.0 | 0.0 | 0.00 | 0.00 | 0.00 | 52 | 1011.0 |
| 20260504042224 | 67 | 296 | 0.0 | 1.0 | 0.00 | 0.00 | 0.00 | 51 | 1011.0 |
| 20260504041224 | 67 | 281 | 0.0 | 0.0 | 0.00 | 0.00 | 0.00 | 52 | 1011.1 |
| 20260504040818 | 67 | 281 | 0.0 | 0.0 | 0.00 | 0.00 | 0.00 | 53 | 1011.1 |
| 20260504040223 | 67 | 281 | 1.0 | 0.0 | 0.00 | 0.00 | 0.00 | 55 | 1011.4 |
| 20260504035319 | 68 | 285 | 0.0 | 0.0 | 0.00 | 0.00 | 0.00 | 52 | 1011.2 |
| 20260504035224 | 68 | 285 | 0.0 | 1.0 | 0.00 | 0.00 | 0.00 | 52 | 1011.3 |
| 20260504034224 | 69 | 247 | 1.0 | 1.0 | 0.00 | 0.00 | 0.00 | 49 | 1010.9 |
| 20260504033817 | 69 | 234 | 0.0 | 0.0 | 0.00 | 0.00 | 0.00 | 49 | 1011.2 |
| 20260504033223 | 69 | 234 | 0.0 | 0.0 | 0.00 | 0.00 | 0.00 | 49 | 1011.3 |
| 20260504032318 | 69 | 234 | 1.0 | 2.0 | 0.00 | 0.00 | 0.00 | 49 | 1011.5 |
| 20260504032224 | 69 | 230 | 1.0 | 2.0 | 0.00 | 0.00 | 0.00 | 48 | 1011.5 |
| 20260504031224 | 69 | 230 | 0.0 | 0.0 | 0.00 | 0.00 | 0.00 | 48 | 1011.6 |
| 20260504030817 | 69 | 230 | 0.0 | 0.0 | 0.00 | 0.00 | 0.00 | 48 | 1011.8 |
| 20260504030223 | 69 | 230 | 0.0 | 2.0 | 0.00 | 0.00 | 0.00 | 47 | 1011.7 |
| 20260504025318 | 70 | 230 | 3.0 | 5.0 | 0.00 | 0.00 | 0.00 | 47 | 1011.6 |
| 20260504025224 | 70 | 229 | 1.0 | 6.0 | 0.00 | 0.00 | 0.00 | 47 | 1011.5 |
| 20260504024224 | 70 | 227 | 2.0 | 5.0 | 0.00 | 0.00 | 0.00 | 47 | 1011.5 |
| 20260504023817 | 70 | 204 | 0.0 | 0.0 | 0.00 | 0.00 | 0.00 | 47 | 1011.5 |
| 20260504023223 | 70 | 204 | 0.0 | 0.0 | 0.00 | 0.00 | 0.00 | 47 | 1011.6 |
| 20260504022318 | 70 | 276 | 1.0 | 3.0 | 0.00 | 0.00 | 0.00 | 46 | 1011.5 |
| 20260504022224 | 70 | 276 | 0.0 | 2.0 | 0.00 | 0.00 | 0.00 | 46 | 1011.6 |
| 20260504021224 | 70 | 280 | 1.0 | 1.0 | 0.00 | 0.00 | 0.00 | 46 | 1011.5 |
| 20260504020817 | 70 | 280 | 0.0 | 0.0 | 0.00 | 0.00 | 0.00 | 46 | 1011.5 |
| 20260504020225 | 71 | 280 | 0.0 | 0.0 | 0.00 | 0.00 | 0.00 | 45 | 1011.4 |
| 20260504015318 | 71 | 280 | 0.0 | 0.0 | 0.00 | 0.00 | 0.00 | 45 | 1011.5 |
| 20260504015224 | 70 | 280 | 0.0 | 0.0 | 0.00 | 0.00 | 0.00 | 45 | 1011.5 |
| 20260504014224 | 71 | 284 | 0.0 | 2.0 | 0.00 | 0.00 | 0.00 | 48 | 1011.5 |
| 20260504013817 | 71 | 284 | 1.0 | 2.0 | 0.00 | 0.00 | 0.00 | 45 | 1011.5 |
| 20260504013223 | 72 | 284 | 0.0 | 0.0 | 0.00 | 0.00 | 0.00 | 44 | 1011.3 |
| 20260504012319 | 72 | 310 | 7.0 | 7.0 | 0.00 | 0.00 | 0.00 | 43 | 1011.3 |
| 20260504012225 | 72 | 264 | 3.0 | 8.0 | 0.00 | 0.00 | 0.00 | 43 | 1011.2 |
| 20260504011224 | 72 | 232 | 1.0 | 2.0 | 0.00 | 0.00 | 0.00 | 42 | 1010.9 |
| 20260504010818 | 72 | 233 | 0.0 | 0.0 | 0.00 | 0.00 | 0.00 | 42 | 1011.0 |
| 20260504010223 | 72 | 233 | 0.0 | 0.0 | 0.00 | 0.00 | 0.00 | 42 | 1010.8 |
| 20260504005410 | 72 | 233 | 0.0 | 0.0 | 0.00 | 0.00 | 0.00 | 42 | 1010.7 |
| 20260504005319 | 72 | 233 | 0.0 | 0.0 | 0.00 | 0.00 | 0.00 | 42 | 1010.7 |
| 20260504005225 | 73 | 233 | 0.0 | 0.0 | 0.00 | 0.00 | 0.00 | 42 | 1010.8 |
| 20260504004224 | 73 | 233 | 0.0 | 0.0 | 0.00 | 0.00 | 0.00 | 41 | 1010.9 |
| 20260504003818 | 73 | 233 | 0.0 | 0.0 | 0.00 | 0.00 | 0.00 | 40 | 1010.8 |
| 20260504003223 | 73 | 234 | 0.0 | 2.0 | 0.00 | 0.00 | 0.00 | 39 | 1010.9 |
| 20260504002319 | 74 | 234 | 3.0 | 5.0 | 0.00 | 0.00 | 0.00 | 39 | 1010.9 |
| 20260504002225 | 74 | 234 | 2.0 | 5.0 | 0.00 | 0.00 | 0.00 | 40 | 1010.9 |
| 20260504001224 | 74 | 234 | 0.0 | 0.0 | 0.00 | 0.00 | 0.00 | 39 | 1011.0 |
| 20260504000818 | 74 | 234 | 1.0 | 2.0 | 0.00 | 0.00 | 0.00 | 39 | 1010.9 |
| 20260504000223 | 75 | 223 | 1.0 | 3.0 | 0.00 | 0.00 | 0.00 | 39 | 1011.0 |
| 20260503235319 | 75 | 204 | 2.0 | 2.0 | 0.00 | 0.00 | 0.00 | 38 | 1011.1 |
| 20260503235225 | 75 | 202 | 2.0 | 5.0 | 0.00 | 0.00 | 0.00 | 38 | 1011.0 |
| 20260503234224 | 76 | 221 | 3.0 | 5.0 | 0.00 | 0.00 | 0.00 | 37 | 1011.2 |
| 20260503233818 | 76 | 219 | 5.0 | 6.0 | 0.00 | 0.00 | 0.00 | 38 | 1011.1 |
| 20260503233223 | 76 | 12 | 1.0 | 2.0 | 0.00 | 0.00 | 0.00 | 37 | 1011.1 |
| 20260503232318 | 76 | 193 | 1.0 | 2.0 | 0.00 | 0.00 | 0.00 | 35 | 1011.2 |
| 20260503232224 | 76 | 192 | 1.0 | 3.0 | 0.00 | 0.00 | 0.00 | 35 | 1011.3 |
| 20260503231224 | 77 | 328 | 1.0 | 7.0 | 0.00 | 0.00 | 0.00 | 35 | 1011.3 |
| 20260503230817 | 78 | 235 | 3.0 | 7.0 | 0.00 | 0.00 | 0.00 | 34 | 1011.4 |
| 20260503230223 | 78 | 307 | 2.0 | 3.0 | 0.00 | 0.00 | 0.00 | 33 | 1011.5 |
| 20260503225319 | 79 | 224 | 5.0 | 12.0 | 0.00 | 0.00 | 0.00 | 34 | 1011.4 |
| 20260503225225 | 79 | 243 | 2.0 | 6.0 | 0.00 | 0.00 | 0.00 | 34 | 1011.4 |
| 20260503224224 | 80 | 291 | 2.0 | 5.0 | 0.00 | 0.00 | 0.00 | 33 | 1011.5 |
| 20260503223818 | 80 | 275 | 5.0 | 12.0 | 0.00 | 0.00 | 0.00 | 33 | 1011.5 |
| 20260503223224 | 79 | 276 | 6.0 | 10.0 | 0.00 | 0.00 | 0.00 | 33 | 1011.6 |
| 20260503222320 | 79 | 235 | 3.0 | 10.0 | 0.00 | 0.00 | 0.00 | 33 | 1011.7 |
| 20260503222224 | 79 | 258 | 1.0 | 2.0 | 0.00 | 0.00 | 0.00 | 33 | 1011.7 |
| 20260503221224 | 79 | 261 | 3.0 | 7.0 | 0.00 | 0.00 | 0.00 | 33 | 1011.7 |
| 20260503220817 | 79 | 248 | 5.0 | 9.0 | 0.00 | 0.00 | 0.00 | 33 | 1011.8 |
| 20260503220223 | 79 | 213 | 7.0 | 13.0 | 0.00 | 0.00 | 0.00 | 32 | 1011.8 |
| 20260503215318 | 80 | 223 | 8.0 | 13.0 | 0.00 | 0.00 | 0.00 | 32 | 1012.0 |
| 20260503215223 | 80 | 254 | 6.0 | 9.0 | 0.00 | 0.00 | 0.00 | 32 | 1012.2 |
| 20260503214223 | 80 | 293 | 3.0 | 12.0 | 0.00 | 0.00 | 0.00 | 32 | 1012.2 |
| 20260503213819 | 80 | 249 | 3.0 | 8.0 | 0.00 | 0.00 | 0.00 | 31 | 1012.2 |
| 20260503213225 | 80 | 267 | 6.0 | 9.0 | 0.00 | 0.00 | 0.00 | 32 | 1012.2 |
| 20260503212318 | 79 | 271 | 3.0 | 6.0 | 0.00 | 0.00 | 0.00 | 33 | 1012.2 |
| 20260503212224 | 79 | 294 | 2.0 | 8.0 | 0.00 | 0.00 | 0.00 | 33 | 1012.2 |
| 20260503211224 | 79 | 260 | 5.0 | 7.0 | 0.00 | 0.00 | 0.00 | 33 | 1012.5 |
| 20260503210817 | 79 | 224 | 6.0 | 8.0 | 0.00 | 0.00 | 0.00 | 33 | 1012.4 |
| 20260503210224 | 79 | 88 | 2.0 | 3.0 | 0.00 | 0.00 | 0.00 | 33 | 1012.5 |
| 20260503205318 | 78 | 223 | 6.0 | 10.0 | 0.00 | 0.00 | 0.00 | 33 | 1012.6 |
| 20260503205223 | 78 | 247 | 7.0 | 9.0 | 0.00 | 0.00 | 0.00 | 33 | 1012.6 |
| 20260503204223 | 78 | 173 | 6.0 | 10.0 | 0.00 | 0.00 | 0.00 | 33 | 1012.7 |
| 20260503203819 | 78 | 253 | 5.0 | 15.0 | 0.00 | 0.00 | 0.00 | 33 | 1012.7 |
| 20260503203225 | 78 | 222 | 5.0 | 8.0 | 0.00 | 0.00 | 0.00 | 33 | 1012.9 |
| 20260503202318 | 78 | 247 | 2.0 | 10.0 | 0.00 | 0.00 | 0.00 | 33 | 1013.0 |
| 20260503202224 | 78 | 256 | 6.0 | 5.0 | 0.00 | 0.00 | 0.00 | 33 | 1013.1 |
| 20260503201224 | 77 | 321 | 6.0 | 9.0 | 0.00 | 0.00 | 0.00 | 33 | 1013.2 |
| 20260503200817 | 77 | 113 | 2.0 | 8.0 | 0.00 | 0.00 | 0.00 | 34 | 1013.3 |
| 20260503200223 | 77 | 176 | 3.0 | 7.0 | 0.00 | 0.00 | 0.00 | 33 | 1013.6 |
| 20260503195319 | 76 | 286 | 6.0 | 9.0 | 0.00 | 0.00 | 0.00 | 34 | 1013.7 |
| 20260503195225 | 76 | 298 | 3.0 | 9.0 | 0.00 | 0.00 | 0.00 | 33 | 1013.7 |
| 20260503194224 | 77 | 182 | 5.0 | 6.0 | 0.00 | 0.00 | 0.00 | 33 | 1013.9 |
| 20260503193818 | 77 | 218 | 7.0 | 10.0 | 0.00 | 0.00 | 0.00 | 34 | 1014.2 |
| 20260503193224 | 76 | 204 | 8.0 | 12.0 | 0.00 | 0.00 | 0.00 | 33 | 1014.4 |
| 20260503192317 | 76 | 274 | 5.0 | 6.0 | 0.00 | 0.00 | 0.00 | 33 | 1014.4 |
| 20260503192223 | 76 | 225 | 6.0 | 10.0 | 0.00 | 0.00 | 0.00 | 33 | 1014.6 |